Regional Weather Roundup
Issued by NWS

Home | Current Version | Previous Version | Text Only | Print | Product List | Glossary On
Versions: 1 2 3 4 5 6 7 8 9 10 11 12 13 14 15 16 17 18 19 20 21 22 23 24 25 26 27 28 29 30 31 32 33 34 35 36 37 38 39 40 41 42 43 44 45 46 47 48 49 50
000
ASUS45 KTFX 281619
RWRMT
MONTANA HOURLY WEATHER ROUNDUP
NATIONAL WEATHER SERVICE GREAT FALLS MT
919 AM MST SAT FEB 28 2015

NOTE: "FAIR" INDICATES FEW OR NO CLOUDS BELOW 12000 FEET WITH NO
SIGNIFICANT WEATHER AND/OR OBSTRUCTIONS TO VISIBILITY.

* THESE STATIONS ARE NOT UNDER NWS QUALITY CONTROL. THEY DO NOT
   REPORT WEATHER SUCH AS PRECIPITATION OR FOG.

MTZ001>007-043-281700-
WEST OF THE DIVIDE
CITY           SKY/WX    TMP DP  RH WIND       PRES   REMARKS
KALISPELL      SUNNY     21   7  55 N13       30.15R WCI   8
MISSOULA       PTCLDY    21   3  45 SE20      30.11R WCI   6
BUTTE          CLOUDY    10   3  73 NW6       29.98R
MULLAN PASS    SUNNY     10   1  67 VRB6      29.88R
* ANACONDA     SUNNY     10   3  73 N11G18     N/A   WCI  -4
* ESSEX        N/A       11   3  70 E2         N/A
* EUREKA APT   SUNNY     21  10  62 CALM      30.21R
* HAMILTON APT SUNNY     23   5  46 N14       30.05R WCI  10
* LIBBY APT    SUNNY     21   9  60 SE3       30.20R
* LINCOLN      N/A       11   1  64 NE6G11     N/A   WCI   1
* LOOKOUT PASS N/A       16   3  56 SE2G9      N/A
* POLSON       N/A       15   7  70 NW1        N/A
* RONAN APT    SUNNY     21   7  55 SE5        N/A   WCI  14
* SEELEY LAKE  N/A       -1  -6  79 NE1        N/A
* THOMP F APT  SUNNY     13   3  64 NW12G22    N/A   WCI  -1
$$

MTZ008-052>055-281700-
SOUTHWEST MONTANA
CITY           SKY/WX    TMP DP  RH WIND       PRES   REMARKS
BOZEMAN        HAZE      14   9  80 W5        30.06R WCI   6
DILLON         LGT SNOW  14   7  73 NE20      29.96R VSB 1 3/4 WCI  -4
* W YELLOWSTON PTCLDY     4  -2  76 N/A        N/A
* THREE FORKS  PTCLDY    16   7  67 N/A        N/A
* BOULDER HILL N/A        8   3  80 N13        N/A   WCI  -8
* MONIDA PASS  N/A        9   4  80 N8         N/A   WCI  -3
* RAYNOLDS PAS N/A        4   3  96 N9         N/A   WCI -10
* WHITEHALL    N/A       15   9  77 E5         N/A   WCI   7
* WISE RIVER   N/A       12   3  67 E8G13      N/A
$$

MTZ009>010-012-014-046-048-049-054-281700-
EAST SLOPES AND CENTRAL MONTANA
CITY           SKY/WX    TMP DP  RH WIND       PRES   REMARKS
CUT BANK       CLOUDY     7   3  83 W6        30.14R WCI  -4
GREAT FALLS    LGT SNOW  12   9  88 NW8       30.16R VSB 1 1/2
HELENA         PTSUNNY   18   7  62 NW8       30.13R WCI   8
MALMSTROM AFB  LGT SNOW  14  10  84 SW6       30.18R VSB 2 3/4 WCI   5
* CONRAD       SUNNY      7   1  76 CALM       N/A
* DEARBORN     N/A       15   9  77 VRB1       N/A
* EAST GLACIER N/A        3  -3  76 NW6        N/A   WCI  -8
* MONARCH      N/A        6   2  83 W2         N/A
* PENDROY      N/A        9   5  84 N4         N/A
* ROGERS PASS  N/A        8   4  84 SE3        N/A
* SWEET GRASS  N/A        8   6  91 W8         N/A   WCI  -4
* WHITE SULPH  N/A       10   4  76 NW3        N/A
$$

MTZ011-013-016-021-035-040-045-047-050-051-281700-
NORTH CENTRAL MONTANA
CITY           SKY/WX    TMP DP  RH WIND       PRES   REMARKS
HAVRE          SUNNY     12   5  73 W10       30.23R WCI  -1
LEWISTOWN      LGT SNOW  10   7  88 W7        30.10R VSB 3    WCI  -1
* N BAR RANCH  PTSUNNY   16   3  56 W10       30.06R WCI   4
* CHINOOK      SUNNY     12   3  67 W10       30.24R WCI  -1
* FORT BENTON  SUNNY     12   7  80 W5        30.24R WCI   4
* CHESTER      N/A       10   3  73 NW1        N/A
* DENTON       N/A       12   7  80 SW2        N/A
* GEYSER       N/A       11   5  77 W13        N/A   WCI  -4
* JUDITH GAP   N/A        9   7  91 N12        N/A   WCI  -6
* LOMA         N/A       11   6  80 W2         N/A
$$

MTZ017>020-022>027-061-062-281700-
NORTHEAST MONTANA
CITY           SKY/WX    TMP DP  RH WIND       PRES   REMARKS
GLASGOW        PTSUNNY   12   1  61 NW15      30.19R WCI  -4
GLENDIVE       CLOUDY    12   7  80 W9        30.17S
JORDAN         PTCLDY    14   9  80 W10       30.17R WCI   1
SIDNEY         PTCLDY    10   3  73 NW7       30.21S WCI  -1
WOLF POINT     CLOUDY    16   5  62 NW13      30.20R WCI   2
* BEAVER HILL  N/A        9   3  76 NW15       N/A   WCI  -8
* CIRCLE       N/A       14  10  84 NW9G14     N/A   WCI   2
* LINDSAY DVD  N/A        9   6  87 W14        N/A   WCI  -7
* NAVAJO       N/A        6   0  76 NW15       N/A   WCI -12
* POPLAR APT   PTCLDY    12   5  73 NW12      30.20R WCI  -2
* SACO         N/A       11   2  67 NW11       N/A   WCI  -3
* SCOBEY APT   SUNNY      9  -4  55 W13        N/A   WCI  -7
$$

MTZ028>042-056>058-281700-
SOUTHCENTRAL AND SOUTHEAST MONTANA
CITY           SKY/WX    TMP DP  RH WIND       PRES   REMARKS
BAKER          CLOUDY    10   3  73 NW15      30.13R WCI  -7
BILLINGS       LGT SNOW  18   9  68 SE3       30.13R
LIVINGSTON     HAZE      12   7  80 E7        30.06R WCI   1
MILES CITY     CLOUDY    16   7  67 W10       30.19R WCI   4
* BIG TIMBER A PTCLDY    10   7  88 CALM      30.09R
* FORSYTH APT  PTCLDY    16   7  67 NW7       30.20R WCI   6
* LAUREL APT   PTCLDY    16   7  67 N/A        N/A
* ROUNDUP APT  PTCLDY    14   3  61 N/A        N/A
* ALZADA       N/A       11   3  70 W11        N/A   WCI  -3
* HYSHAM       N/A       15   5  64 W3         N/A
* LAME DEER    N/A        9   6  87 NW3G8      N/A
* REED POINT   N/A       18   9  68 N4         N/A
$$

REGIONAL REPORTS...DAKOTAS
CITY           SKY/WX    TMP DP  RH WIND       PRES   REMARKS
WILLISTON      CLOUDY     7   0  73 W6        30.18R WCI  -4
DICKINSON      PTCLDY     9   1  70 NW21      30.08R WCI -11
BEACH          LGT SNOW   9   5  84 NW16      30.14R WCI  -8
CROSBY         LGT SNOW   3   0  87 NW13      30.16R WCI -14
TIOGA          LGT SNOW   0  -2  91 NW13      30.14R WCI -18
WATFORD CITY   LGT SNOW   5   0  80 NW10      30.15R WCI -10
BISMARCK       CLOUDY    18   9  68 W12       30.11R WCI   5
GRAND FORKS    CLOUDY     9   1  70 S18       30.20F WCI  -9
FARGO          PTCLDY    14   3  61 S15       30.26F WCI  -1
BUFFALO SD     SUNNY     12   3  67 NW23      30.04R WCI  -7
RAPID CITY     SUNNY     18   3  52 N23       30.10R WCI   1
$$

REGIONAL REPORTS...WYOMING/IDAHO/WASHINGTON
CITY           SKY/WX    TMP DP  RH WIND       PRES   REMARKS
GILLETTE       CLOUDY    12   7  80 W6        30.07R WCI   2
SHERIDAN       CLOUDY    16   9  74 N8        30.11R WCI   5
CODY           CLOUDY    12  10  92 NE7       30.01R WCI   1
YELLOWSTONE LA PTCLDY    -2  -6  83 CALM      29.82R
SALMON         CLOUDY    27  10  49 NE8       29.93R WCI  19
MULLAN PASS    SUNNY     10   1  67 VRB6      29.88S
SAND POINT     SUNNY     30   5  34 NE17G23   30.14R WCI  18
SPOKANE        SUNNY     30   7  38 NE13      30.07R WCI  20
$$

REGIONAL REPORTS...ALBERTA
CITY           SKY/WX    TMP DP  RH WIND       PRES   REMARKS
CALGARY        PTSUNNY   16   3  56 W8        30.12S WCI   5
LETHBRIDGE     SUNNY     16  10  77 W17       30.18R
MEDICINE HAT   SUNNY      9   7  91 SW10      30.21R WCI  -5
EDMONTON       CLOUDY    12   3  67 W5        30.15S WCI   4
WATERTON GATE  N/A        7   1  76 SW6        N/A   WCI  -4
CARDSTON       N/A       12   5  73 W8         N/A
MILK RIVER     N/A        7   3  83 W9         N/A   WCI  -6
$$

REGIONAL REPORTS...SASKATCHEWAN
CITY           SKY/WX    TMP DP  RH WIND       PRES   REMARKS
SWIFT CURRENT  LGT SNOW   5   1  83 W20       30.11S WCI -15
REGINA         SUNNY     -9 -13  82 W5        30.15S WCI -21
VAL MARIE      N/A        9   3  76 NW14       N/A   WCI  -7
ASSINIBOIA     N/A        7   1  76 W16        N/A   WCI -11
CORONACH       N/A        9   3  76 NW15       N/A   WCI  -8

$$



USA.gov is the U.S. government's official web portal to all federal, state and local government web resources and services.